This demonstration page uses our WeatherBlox Daily Observations layout. Learn more.

Left ArrowRight Arrow

39.12711, -84.51439

Hourly Observations for September 3, 2022

Temp ( °F °C ) Dew Point ( °F °C ) Humidity (%) Winds ( mph kmh ) Pressure ( in mb ) Visibility ( mi km ) Precip ( " mm )
12:53 am 00:53 Clear 70 21.1 70 21.1 100 100 Calm 30.10 1019 8 13 0.00 0.00
1:53 am 01:53 Clear with Mist and Fog 70 21.1 70 21.1 100 100 Calm 30.10 1019 6 10 0.00 0.00
2:16 am 02:16 Clear with Mist and Fog 69 20.6 69 20.6 100 100 Calm 30.11 1020 2 3 0.00 0.00
2:25 am 02:25 Clear with Mist and Fog 69 20.6 69 20.6 100 100 Calm 30.11 1020 6 10 0.00 0.00
2:53 am 02:53 Clear with Mist and Fog 69 20.6 69 20.6 100 100 Calm 30.11 1020 5 8 0.00 0.00
3:18 am 03:18 Clear with Mist and Fog 69 20.6 69 20.6 100 100 Calm 30.11 1020 3 4 0.00 0.00
3:26 am 03:26 Clear with Mist and Fog 70 21.1 69 20.6 97 97 Calm 30.11 1020 5 8 0.00 0.00
3:53 am 03:53 Clear with Mist and Fog 69 20.6 69 20.6 100 100 Calm 30.11 1020 4 6 0.00 0.00
4:13 am 04:13 Clear with Mist and Fog 68 20 68 20 100 100 Calm 30.11 1020 2 3 0.00 0.00
4:21 am 04:21 Clear with Fog 68 20 68 20 100 100 Calm 30.12 1020 0 0 0.00 0.00
4:39 am 04:39 Mostly Cloudy with Mist and Fog 68 20 68 20 100 100 Calm 30.12 1020 3 5 0.00 0.00
4:53 am 04:53 Partly Cloudy with Mist and Fog 69 20.6 68 20 96 96 Calm 30.11 1020 6 10 0.00 0.00
5:53 am 05:53 Clear with Mist and Fog 69 20.6 68 20 96 96 Calm 30.10 1019 6 10 0.00 0.00
6:28 am 06:28 Mostly Clear with Nearby Thunderstorms 68 20 68 20 100 100 Calm 30.11 1020 3 5 0.00 0.00
6:44 am 06:44 Mostly Clear with Mist and Fog 70 21.1 69 20.6 97 97 Calm 30.11 1020 4 6 0.00 0.00
6:53 am 06:53 Partly Cloudy with Nearby Thunderstorms 68 20 68 20 100 100 Calm 30.11 1020 5 8 0.00 0.00
7:24 am 07:24 Mostly Cloudy with Mist and Fog 69 20.6 69 20.6 100 100 Calm 30.12 1020 5 8 0.00 0.00
7:32 am 07:32 Mostly Cloudy with Nearby Thunderstorms 70 21.1 69 20.6 97 97 Calm 30.13 1020 5 8 0.00 0.00
7:45 am 07:45 Cloudy with Light Rain 70 21.1 69 20.6 97 97 Calm 30.12 1020 3 4 0.01 0.25
7:53 am 07:53 Cloudy with Light Rain 70 21.1 70 21.1 100 100 Calm 30.12 1020 6 10 0.01 0.25
8:04 am 08:04 Cloudy with Nearby Thunderstorms 71 21.7 70 21.1 96 96 Calm 30.12 1020 4 6 0.01 0.13
8:45 am 08:45 Cloudy with Light Rain 73 22.8 71 21.7 94 94 Calm 30.15 1021 6 10 0.01 0.13
8:53 am 08:53 Cloudy with Light Rain 73 22.8 71 21.7 94 94 Calm 30.16 1021 6 10 0.01 0.13
9:53 am 09:53 Cloudy with Nearby Thunderstorms 73 22.8 72 22.2 96 96 S 3 6 30.17 1022 5 8 0.01 0.13
10:08 am 10:08 Cloudy with Rain 73 22.8 72 22.2 96 96 Calm 30.16 1021 4 6 0.02 0.51
10:38 am 10:38 Cloudy with Light Rain 73 22.8 72 22.2 96 96 NE 6 9 30.16 1021 4 6 0.02 0.51
10:53 am 10:53 Cloudy with Mist and Fog 73 22.8 72 22.2 96 96 E 5 7 30.18 1022 4 6 0.02 0.51
11:28 am 11:28 Cloudy with Rain 73 22.8 72 22.2 96 96 NNE 8 13 30.17 1022 2 3 0.02 0.51
11:45 am 11:45 Cloudy with Light Rain 72 22.2 71 21.7 97 97 ENE 8 13 30.17 1022 2 3 0.09 2.29
11:53 am 11:53 Cloudy with Light Rain 72 22.2 72 22.2 100 100 E 3 6 30.18 1022 2 3 0.09 2.29
12:53 pm 12:53 Cloudy with Light Rain 73 22.8 72 22.2 96 96 E 6 9 30.18 1022 3 5 0.01 0.13
1:53 pm 13:53 Cloudy with Light Rain 74 23.3 71 21.7 91 91 NE 8 13 30.16 1021 10 16 0.01 0.13
2:53 pm 14:53 Mostly Cloudy 77 25 72 22.2 84 84 NNE 7 11 30.16 1021 10 16 0.01 0.13
3:53 pm 15:53 Cloudy 76 24.4 71 21.7 85 85 ENE 7 11 30.13 1020 10 16 0.00 0.00
4:53 pm 16:53 Mostly Cloudy 75 23.9 69 20.6 82 82 NE 6 9 30.11 1020 10 16 0.00 0.00
5:53 pm 17:53 Cloudy with Light Rain 73 22.8 70 21.1 90 90 NE 5 7 30.11 1020 9 14 0.01 0.13
6:53 pm 18:53 Cloudy with Light Rain 71 21.7 70 21.1 96 96 Calm 30.11 1020 4 6 0.04 1.02
7:25 pm 19:25 Cloudy with Nearby Thunderstorms 71 21.7 70 21.1 96 96 Calm 30.12 1020 3 5 0.07 1.78
7:40 pm 19:40 Cloudy with Rain 71 21.7 70 21.1 96 96 Calm 30.11 1020 3 5 0.11 2.79
7:53 pm 19:53 Cloudy with Rain 70 21.1 70 21.1 100 100 N 3 6 30.10 1019 3 5 0.16 4.06
8:53 pm 20:53 Mostly Cloudy with Light Rain 71 21.7 70 21.1 96 96 ENE 3 6 30.09 1019 7 11 0.10 2.54
9:53 pm 21:53 Mostly Cloudy with Rain 71 21.7 70 21.1 96 96 Calm 30.09 1019 4 6 0.03 0.76
10:53 pm 22:53 Mostly Cloudy with Light Rain 71 21.7 70 21.1 96 96 Calm 30.09 1019 4 6 0.11 2.79
11:53 pm 23:53 Mostly Clear with Light Rain 70 21.1 70 21.1 100 100 Calm 30.09 1019 5 8 0.02 0.51

Powered by AerisWeather